Location: Killam
(52.7910°N, 111.8608°W)
Time: 14:04:53
(UTC+00:00)

Oscar 11 - Pass Details

Date: 23 March 2026
Orbit: 590 x 602 km, 97.8° (Epoch: 18 April)

Event Time Altitude Azimuth Distance (km) Brightness Sun altitude
Rises 10:55:24 0° 16° (NNE) 2,840 11.2 -21.7°
Reaches altitude 10° 10:57:36 10° 21° (NNE) 1,933 10.3 -21.5°
Maximum altitude 11:01:45 59° 101° (ESE) 687 7.4 -20.9°
Enters shadow 11:03:44 29° 171° (S) 1,108 8.1 -20.7°
